FW6732 Weather Reports


Display with metric or nautical units.
time (UTC)temp
F
wind
direction
speed
MPH
gust
MPH
rain 1hr
in
rain 24hr
in
rain mn
in
humidity
%
barometer
mb
20260906193503 102 215 0.0 2.0 0.00 0.00 0.00 40 1011.0
20260906193003 102 229 0.0 2.0 0.00 0.00 0.00 43 1011.0
20260906192503 101 231 0.0 4.0 0.00 0.00 0.00 40 1011.1
20260906192003 101 293 0.0 4.0 0.00 0.00 0.00 41 1011.3
20260906191503 101 292 0.0 3.0 0.00 0.00 0.00 43 1011.3
20260906191003 101 231 0.0 4.0 0.00 0.00 0.00 40 1011.4
20260906190503 101 194 0.0 4.0 0.00 0.00 0.00 45 1011.4
20260906190003 100 329 0.0 2.0 0.00 0.00 0.00 44 1011.5
20260906185524 100 14 0.0 2.0 0.00 0.00 0.00 45 1011.6
20260906185024 101 109 0.0 2.0 0.00 0.00 0.00 46 1011.6
20260906184503 100 174 0.0 2.0 0.00 0.00 0.00 47 1011.6
20260906184003 99 192 0.0 2.0 0.00 0.00 0.00 45 1011.6
20260906183503 100 189 0.0 2.0 0.00 0.00 0.00 42 1011.8
20260906183003 100 188 0.0 2.0 0.00 0.00 0.00 45 1011.8
20260906182503 99 188 0.0 1.0 0.00 0.00 0.00 45 1012.1
20260906182003 100 188 0.0 1.0 0.00 0.00 0.00 46 1012.1
20260906181524 99 188 0.0 2.0 0.00 0.00 0.00 46 1012.2
20260906181003 98 212 0.0 3.0 0.00 0.00 0.00 46 1012.3
20260906180503 98 260 0.0 3.0 0.00 0.00 0.00 47 1012.4
20260906180004 99 320 0.0 2.0 0.00 0.00 0.00 44 1012.5
20260906175503 99 326 1.0 3.0 0.00 0.00 0.00 46 1012.6
20260906175003 99 327 0.0 3.0 0.00 0.00 0.00 43 1012.6
20260906174503 98 342 0.0 1.0 0.00 0.00 0.00 48 1012.8
20260906174003 99 342 0.0 1.0 0.00 0.00 0.00 47 1012.9
20260906173503 98 344 1.0 2.0 0.00 0.00 0.00 45 1013.0
20260906173003 98 343 1.0 3.0 0.00 0.00 0.00 43 1013.1
20260906172503 98 339 1.0 3.0 0.00 0.00 0.00 47 1013.1
20260906172003 97 325 1.0 3.0 0.00 0.00 0.00 47 1013.2
20260906171503 97 216 0.0 2.0 0.00 0.00 0.00 47 1013.2
20260906171003 96 193 0.0 2.0 0.00 0.00 0.00 49 1013.2
20260906170503 95 193 0.0 2.0 0.00 0.00 0.00 50 1013.4
20260906170003 95 193 0.0 2.0 0.00 0.00 0.00 54 1013.5
20260906165503 94 191 0.0 2.0 0.00 0.00 0.00 53 1013.5
20260906165003 94 187 0.0 2.0 0.00 0.00 0.00 52 1013.6
20260906164503 93 180 0.0 1.0 0.00 0.00 0.00 57 1013.7
20260906164003 93 103 0.0 1.0 0.00 0.00 0.00 57 1013.7
20260906163503 92 104 0.0 1.0 0.00 0.00 0.00 59 1013.6
20260906163003 92 107 0.0 1.0 0.00 0.00 0.00 61 1013.7
20260906162503 91 107 0.0 1.0 0.00 0.00 0.00 61 1013.8
20260906162003 91 107 0.0 2.0 0.00 0.00 0.00 61 1013.8
20260906161503 91 107 0.0 2.0 0.00 0.00 0.00 59 1013.9
20260906161003 91 0 0.0 0.0 0.00 0.00 0.00 62 1013.8
20260906160503 91 0 0.0 0.0 0.00 0.00 0.00 63 1013.9
20260906160003 91 0 0.0 0.0 0.00 0.00 0.00 64 1013.7
20260906155503 91 0 0.0 0.0 0.00 0.00 0.00 64 1013.9
20260906155003 91 0 0.0 0.0 0.00 0.00 0.00 64 1013.9
20260906154503 90 109 0.0 1.0 0.00 0.00 0.00 63 1013.9
20260906154003 90 109 0.0 1.0 0.00 0.00 0.00 63 1013.8
20260906153524 90 109 0.0 1.0 0.00 0.00 0.00 66 1013.7
20260906153003 89 109 0.0 1.0 0.00 0.00 0.00 67 1013.7
20260906152503 89 0 0.0 0.0 0.00 0.00 0.00 67 1013.7
20260906152003 88 0 0.0 0.0 0.00 0.00 0.00 66 1013.8
20260906151503 88 109 0.0 2.0 0.00 0.00 0.00 67 1013.7
20260906151024 88 109 0.0 2.0 0.00 0.00 0.00 66 1013.6
20260906150503 87 109 0.0 1.0 0.00 0.00 0.00 66 1013.6
20260906150004 87 109 0.0 1.0 0.00 0.00 0.00 68 1013.5
20260906145503 86 109 0.0 1.0 0.00 0.00 0.00 67 1013.5
20260906145003 86 0 0.0 0.0 0.00 0.00 0.00 70 1013.6
20260906144503 86 0 0.0 0.0 0.00 0.00 0.00 72 1013.6
20260906144003 85 0 0.0 0.0 0.00 0.00 0.00 71 1013.7
20260906143503 85 0 0.0 0.0 0.00 0.00 0.00 72 1013.6
20260906143003 84 0 0.0 0.0 0.00 0.00 0.00 73 1013.5
20260906142504 84 0 0.0 0.0 0.00 0.00 0.00 73 1013.5
20260906142005 84 0 0.0 0.0 0.00 0.00 0.00 73 1013.5
20260906141503 84 0 0.0 0.0 0.00 0.00 0.00 74 1013.5
20260906141004 83 0 0.0 0.0 0.00 0.00 0.00 75 1013.5
20260906140524 83 0 0.0 0.0 0.00 0.00 0.00 76 1013.5
20260906140007 82 0 0.0 0.0 0.00 0.00 0.00 78 1013.4
20260906135505 82 0 0.0 0.0 0.00 0.00 0.00 78 1013.4
20260906135006 81 0 0.0 0.0 0.00 0.00 0.00 81 1013.4
20260906134509 80 0 0.0 0.0 0.00 0.00 0.00 81 1013.3
20260906134004 80 0 0.0 0.0 0.00 0.00 0.00 83 1013.3
20260906133504 80 0 0.0 0.0 0.00 0.00 0.00 84 1013.4
20260906133004 79 0 0.0 0.0 0.00 0.00 0.00 85 1013.3
20260906132504 79 0 0.0 0.0 0.00 0.00 0.00 85 1013.4
20260906132003 78 111 0.0 1.0 0.00 0.00 0.00 86 1013.4
20260906131525 78 111 0.0 1.0 0.00 0.00 0.00 86 1013.4
20260906131004 78 0 0.0 0.0 0.00 0.00 0.00 87 1013.3
20260906130524 77 0 0.0 0.0 0.00 0.00 0.00 86 1013.4
20260906130024 77 0 0.0 0.0 0.00 0.00 0.00 86 1013.3
20260906125503 77 0 0.0 0.0 0.00 0.00 0.00 86 1013.3
20260906125003 77 0 0.0 0.0 0.00 0.00 0.00 86 1013.2
20260906124524 77 0 0.0 0.0 0.00 0.00 0.00 85 1013.2
20260906124003 77 0 0.0 0.0 0.00 0.00 0.00 85 1013.1
20260906123503 77 0 0.0 0.0 0.00 0.00 0.00 85 1013.1
20260906123024 77 0 0.0 0.0 0.00 0.00 0.00 85 1013.1
20260906122503 77 0 0.0 0.0 0.00 0.00 0.00 85 1013.1
20260906122003 77 0 0.0 0.0 0.00 0.00 0.00 85 1013.0
20260906121503 77 0 0.0 0.0 0.00 0.00 0.00 85 1012.9
20260906121003 77 0 0.0 0.0 0.00 0.00 0.00 84 1012.8
20260906120525 77 0 0.0 0.0 0.00 0.00 0.00 84 1012.8
20260906120003 77 0 0.0 0.0 0.00 0.00 0.00 84 1012.4
20260906115503 77 0 0.0 0.0 0.00 0.00 0.00 84 1012.4
20260906115024 77 0 0.0 0.0 0.00 0.00 0.00 84 1012.4
20260906114503 77 0 0.0 0.0 0.00 0.00 0.00 84 1012.4
20260906114003 77 0 0.0 0.0 0.00 0.00 0.00 84 1012.3
20260906113503 77 0 0.0 0.0 0.00 0.00 0.00 84 1012.5
20260906113024 77 0 0.0 0.0 0.00 0.00 0.00 84 1012.3
20260906112524 77 0 0.0 0.0 0.00 0.00 0.00 84 1012.3
20260906112003 77 0 0.0 0.0 0.00 0.00 0.00 84 1012.3
20260906111503 78 0 0.0 0.0 0.00 0.00 0.00 84 1012.2
20260906111003 78 0 0.0 0.0 0.00 0.00 0.00 84 1012.2
20260906110503 78 0 0.0 0.0 0.00 0.00 0.00 84 1012.2
20260906110003 78 0 0.0 0.0 0.00 0.00 0.00 83 1012.1
20260906105503 78 0 0.0 0.0 0.00 0.00 0.00 83 1012.1
20260906105003 78 0 0.0 0.0 0.00 0.00 0.00 83 1012.2
20260906104503 78 0 0.0 0.0 0.00 0.00 0.00 83 1012.0
20260906104024 78 0 0.0 0.0 0.00 0.00 0.00 83 1012.1
20260906103503 78 0 0.0 0.0 0.00 0.00 0.00 83 1012.0
20260906103003 78 0 0.0 0.0 0.00 0.00 0.00 83 1012.0
20260906102503 78 0 0.0 0.0 0.00 0.00 0.00 83 1012.0
20260906102003 78 0 0.0 0.0 0.00 0.00 0.00 83 1012.0
20260906101502 78 0 0.0 0.0 0.00 0.00 0.00 83 1012.0
20260906101002 78 0 0.0 0.0 0.00 0.00 0.00 83 1012.0
20260906100003 78 0 0.0 0.0 0.00 0.00 0.00 83 1012.0
20260906095503 78 0 0.0 0.0 0.00 0.00 0.00 83 1012.0
20260906095003 78 0 0.0 0.0 0.00 0.00 0.00 83 1012.1
20260906094503 78 0 0.0 0.0 0.00 0.00 0.00 83 1012.0
20260906094003 79 0 0.0 0.0 0.00 0.00 0.00 83 1012.0
20260906093503 79 0 0.0 0.0 0.00 0.00 0.00 83 1011.8
20260906093003 79 0 0.0 0.0 0.00 0.00 0.00 83 1011.6
20260906092503 79 0 0.0 0.0 0.00 0.00 0.00 83 1011.7
20260906092003 79 0 0.0 0.0 0.00 0.00 0.00 83 1011.7
20260906091503 79 0 0.0 0.0 0.00 0.00 0.00 83 1011.6
20260906091024 79 0 0.0 0.0 0.00 0.00 0.00 83 1011.6
20260906090503 79 0 0.0 0.0 0.00 0.00 0.00 83 1011.6
20260906090003 79 0 0.0 0.0 0.00 0.00 0.00 83 1011.6
20260906085503 79 0 0.0 0.0 0.00 0.00 0.00 83 1011.5
20260906085024 79 0 0.0 0.0 0.00 0.00 0.00 82 1011.6
20260906084503 79 0 0.0 0.0 0.00 0.00 0.00 82 1011.5
20260906084003 79 0 0.0 0.0 0.00 0.00 0.00 82 1011.4
20260906083524 80 0 0.0 0.0 0.00 0.00 0.00 82 1011.4
20260906083003 80 0 0.0 0.0 0.00 0.00 0.00 82 1011.4
20260906082524 80 0 0.0 0.0 0.00 0.00 0.00 81 1011.4
20260906082003 80 0 0.0 0.0 0.00 0.00 0.00 81 1011.2
20260906081503 80 0 0.0 0.0 0.00 0.00 0.00 80 1011.3
20260906081003 80 0 0.0 0.0 0.00 0.00 0.00 80 1011.2
20260906080503 80 0 0.0 0.0 0.00 0.00 0.00 80 1011.3
20260906080003 80 0 0.0 0.0 0.00 0.00 0.00 80 1011.3
20260906075503 80 0 0.0 0.0 0.00 0.00 0.00 79 1011.3
20260906075003 80 0 0.0 0.0 0.00 0.00 0.00 79 1011.2
20260906074503 80 0 0.0 0.0 0.00 0.00 0.00 79 1011.2
20260906074024 80 0 0.0 0.0 0.00 0.00 0.00 79 1011.2
20260906073503 80 0 0.0 0.0 0.00 0.00 0.00 79 1011.1
20260906073003 80 0 0.0 0.0 0.00 0.00 0.00 79 1011.1
20260906072503 80 0 0.0 0.0 0.00 0.00 0.00 78 1011.2
20260906072003 80 0 0.0 0.0 0.00 0.00 0.00 78 1011.2
20260906071503 80 0 0.0 0.0 0.00 0.00 0.00 78 1011.2
20260906071003 81 0 0.0 0.0 0.00 0.00 0.00 78 1011.3
20260906070503 81 0 0.0 0.0 0.00 0.00 0.00 77 1011.5
20260906070003 81 0 0.0 0.0 0.00 0.00 0.00 77 1011.4
20260906065503 81 0 0.0 0.0 0.00 0.00 0.00 76 1011.4
20260906065003 81 0 0.0 0.0 0.00 0.00 0.00 76 1011.2
20260906064503 81 0 0.0 0.0 0.00 0.00 0.00 76 1011.2
20260906064003 81 0 0.0 0.0 0.00 0.00 0.00 76 1011.2
20260906063503 81 0 0.0 0.0 0.00 0.00 0.00 76 1011.3
20260906063024 81 0 0.0 0.0 0.00 0.00 0.00 76 1011.3
20260906062503 81 0 0.0 0.0 0.00 0.00 0.00 76 1011.4
20260906062003 81 0 0.0 0.0 0.00 0.00 0.00 75 1011.4
20260906061503 81 0 0.0 0.0 0.00 0.00 0.00 75 1011.4
20260906061003 82 0 0.0 0.0 0.00 0.00 0.00 75 1011.4
20260906060503 82 0 0.0 0.0 0.00 0.00 0.00 75 1011.3
20260906060003 82 0 0.0 0.0 0.00 0.00 0.00 75 1011.4
20260906055503 82 0 0.0 0.0 0.00 0.00 0.00 74 1011.4
20260906055024 82 0 0.0 0.0 0.00 0.00 0.00 74 1011.4
20260906054503 82 0 0.0 0.0 0.00 0.00 0.00 74 1011.5
20260906054024 82 0 0.0 0.0 0.00 0.00 0.00 74 1011.4
20260906053503 82 0 0.0 0.0 0.00 0.00 0.00 74 1011.4
20260906053003 82 0 0.0 0.0 0.00 0.00 0.00 73 1011.3
20260906052503 82 0 0.0 0.0 0.00 0.00 0.00 73 1011.4
20260906052003 82 0 0.0 0.0 0.00 0.00 0.00 73 1011.3
20260906051503 82 0 0.0 0.0 0.00 0.00 0.00 73 1011.2
20260906051003 83 0 0.0 0.0 0.00 0.00 0.00 73 1011.2
20260906050503 83 0 0.0 0.0 0.00 0.00 0.00 72 1011.2
20260906050006 83 0 0.0 0.0 0.00 0.00 0.00 71 1011.2
20260906045503 83 0 0.0 0.0 0.00 0.00 0.00 71 1011.1
20260906045003 83 0 0.0 0.0 0.00 0.00 0.00 71 1011.1
20260906044503 83 0 0.0 0.0 0.00 0.00 0.00 71 1011.1
20260906044003 83 0 0.0 0.0 0.00 0.00 0.00 70 1011.2
20260906043524 83 0 0.0 0.0 0.00 0.00 0.00 70 1011.1
20260906043003 83 0 0.0 0.0 0.00 0.00 0.00 70 1011.1
20260906042503 84 0 0.0 0.0 0.00 0.00 0.00 70 1011.2
20260906042003 84 0 0.0 0.0 0.00 0.00 0.00 70 1011.2
20260906041524 84 0 0.0 0.0 0.00 0.00 0.00 69 1011.2
20260906041003 84 0 0.0 0.0 0.00 0.00 0.00 70 1011.2
20260906040503 84 0 0.0 0.0 0.00 0.00 0.00 69 1011.2
20260906040003 84 0 0.0 0.0 0.00 0.00 0.00 69 1011.4
20260906035524 84 0 0.0 0.0 0.00 0.00 0.00 69 1011.2
20260906035003 85 0 0.0 0.0 0.00 0.00 0.00 69 1011.1
20260906034524 85 0 0.0 0.0 0.00 0.00 0.00 69 1011.2
20260906034003 85 0 0.0 0.0 0.00 0.00 0.00 68 1011.2
20260906033503 85 0 0.0 0.0 0.00 0.00 0.00 68 1011.2
20260906033003 85 0 0.0 0.0 0.00 0.00 0.00 67 1011.0
20260906032503 85 0 0.0 0.0 0.00 0.00 0.00 66 1010.9
20260906032003 86 0 0.0 0.0 0.00 0.00 0.00 66 1011.1
20260906031524 86 0 0.0 0.0 0.00 0.00 0.00 65 1011.0
20260906031003 86 0 0.0 0.0 0.00 0.00 0.00 65 1011.1
20260906030503 86 0 0.0 0.0 0.00 0.00 0.00 65 1011.1
20260906030003 86 0 0.0 0.0 0.00 0.00 0.00 65 1011.1
20260906025503 86 0 0.0 0.0 0.00 0.00 0.00 65 1011.1
20260906025003 86 0 0.0 0.0 0.00 0.00 0.00 64 1011.0
20260906024524 87 0 0.0 0.0 0.00 0.00 0.00 64 1010.9
20260906024003 87 0 0.0 0.0 0.00 0.00 0.00 63 1010.8
20260906023503 87 0 0.0 0.0 0.00 0.00 0.00 63 1010.6
20260906023024 87 0 0.0 0.0 0.00 0.00 0.00 63 1010.6
20260906022503 87 0 0.0 0.0 0.00 0.00 0.00 62 1010.5
20260906022003 88 0 0.0 0.0 0.00 0.00 0.00 62 1010.3
20260906021503 88 0 0.0 0.0 0.00 0.00 0.00 61 1010.2
20260906021003 88 0 0.0 0.0 0.00 0.00 0.00 60 1010.2
20260906020503 88 0 0.0 0.0 0.00 0.00 0.00 60 1010.2
20260906020003 88 0 0.0 0.0 0.00 0.00 0.00 60 1010.3
20260906015503 89 0 0.0 0.0 0.00 0.00 0.00 59 1010.3
20260906015003 89 0 0.0 0.0 0.00 0.00 0.00 59 1010.2
20260906014503 89 0 0.0 0.0 0.00 0.00 0.00 58 1010.2
20260906014003 89 0 0.0 0.0 0.00 0.00 0.00 57 1010.0
20260906013503 90 0 0.0 0.0 0.00 0.00 0.00 56 1010.0
20260906013003 90 0 0.0 0.0 0.00 0.00 0.00 56 1010.0
20260906012503 90 0 0.0 0.0 0.00 0.00 0.00 55 1009.9
20260906012024 90 0 0.0 0.0 0.00 0.00 0.00 54 1009.9
20260906011524 91 0 0.0 0.0 0.00 0.00 0.00 54 1009.9
20260906011003 91 0 0.0 0.0 0.00 0.00 0.00 54 1009.9
20260906010503 91 0 0.0 0.0 0.00 0.00 0.00 53 1009.9
20260906010003 92 0 0.0 0.0 0.00 0.00 0.00 53 1009.9
20260906005524 92 0 0.0 0.0 0.00 0.00 0.00 52 1009.9
20260906005003 92 0 0.0 0.0 0.00 0.00 0.00 53 1009.9
20260906004503 92 0 0.0 0.0 0.00 0.00 0.00 51 1009.9
20260906004003 93 0 0.0 0.0 0.00 0.00 0.00 51 1009.9
20260906003503 93 0 0.0 0.0 0.00 0.00 0.00 51 1009.9
20260906003003 93 0 0.0 0.0 0.00 0.00 0.00 51 1009.8
20260906002524 93 0 0.0 0.0 0.00 0.00 0.00 51 1009.8
20260906002003 94 0 0.0 0.0 0.00 0.00 0.00 51 1009.8
20260906001503 94 0 0.0 0.0 0.00 0.00 0.00 51 1009.7
20260906001003 94 0 0.0 0.0 0.00 0.00 0.00 52 1009.7
20260906000503 94 0 0.0 0.0 0.00 0.00 0.00 52 1009.6
20260906000003 94 0 0.0 0.0 0.00 0.00 0.00 52 1009.6
20260905235503 94 0 0.0 0.0 0.00 0.00 0.00 53 1009.6
20260905235003 94 0 0.0 0.0 0.00 0.00 0.00 53 1009.6
20260905234524 94 0 0.0 0.0 0.00 0.00 0.00 51 1009.5
20260905234003 95 0 0.0 0.0 0.00 0.00 0.00 51 1009.4
20260905233524 95 0 0.0 0.0 0.00 0.00 0.00 52 1009.4
20260905233003 96 0 0.0 0.0 0.00 0.00 0.00 51 1009.5
20260905232503 96 0 0.0 0.0 0.00 0.00 0.00 49 1009.4
20260905232024 96 0 0.0 0.0 0.00 0.00 0.00 48 1009.4
20260905231503 96 0 0.0 0.0 0.00 0.00 0.00 48 1009.4
20260905231003 96 0 0.0 0.0 0.00 0.00 0.00 48 1009.3
20260905230503 97 0 0.0 0.0 0.00 0.00 0.00 48 1009.3
20260905230003 97 110 0.0 1.0 0.00 0.00 0.00 47 1009.3
20260905225503 98 104 0.0 1.0 0.00 0.00 0.00 46 1009.4
20260905225003 98 103 0.0 1.0 0.00 0.00 0.00 46 1009.3
20260905224503 98 111 0.0 2.0 0.00 0.00 0.00 46 1009.4
20260905224024 98 113 0.0 2.0 0.00 0.00 0.00 44 1009.4
20260905223524 99 156 0.0 2.0 0.00 0.00 0.00 44 1009.5
20260905223024 99 192 0.0 2.0 0.00 0.00 0.00 45 1009.5
20260905222503 99 195 0.0 2.0 0.00 0.00 0.00 45 1009.6
20260905222003 99 146 0.0 1.0 0.00 0.00 0.00 46 1009.5
20260905221524 98 0 0.0 0.0 0.00 0.00 0.00 47 1009.6
20260905221003 99 53 0.0 2.0 0.00 0.00 0.00 46 1009.6
20260905220503 99 54 0.0 2.0 0.00 0.00 0.00 45 1009.6
20260905220003 99 58 0.0 2.0 0.00 0.00 0.00 45 1009.6
20260905215503 99 215 0.0 1.0 0.00 0.00 0.00 46 1009.7
20260905215024 99 214 0.0 2.0 0.00 0.00 0.00 47 1009.8
20260905214503 99 202 0.0 2.0 0.00 0.00 0.00 44 1009.9
20260905214003 99 110 0.0 1.0 0.00 0.00 0.00 45 1010.0
20260905213503 99 108 0.0 2.0 0.00 0.00 0.00 44 1010.0
20260905213003 99 152 0.0 4.0 0.00 0.00 0.00 45 1010.1
20260905212524 100 227 0.0 4.0 0.00 0.00 0.00 45 1010.1
20260905212003 100 336 0.0 1.0 0.00 0.00 0.00 45 1010.2
20260905211503 100 334 0.0 2.0 0.00 0.00 0.00 48 1010.3
20260905211003 100 258 0.0 3.0 0.00 0.00 0.00 45 1010.3
20260905210524 100 244 0.0 3.0 0.00 0.00 0.00 42 1010.4
20260905210024 100 271 0.0 3.0 0.00 0.00 0.00 44 1010.5
20260905205524 99 36 0.0 3.0 0.00 0.00 0.00 46 1010.6
20260905205003 100 85 0.0 4.0 0.00 0.00 0.00 46 1010.6
20260905204503 100 117 1.0 4.0 0.00 0.00 0.00 47 1010.6
20260905204003 99 124 1.0 2.0 0.00 0.00 0.00 48 1010.8
20260905203503 99 122 0.0 2.0 0.00 0.00 0.00 46 1010.9
20260905203003 100 241 0.0 2.0 0.00 0.00 0.00 48 1011.0
20260905202524 100 246 0.0 2.0 0.00 0.00 0.00 48 1010.9
20260905202003 100 252 0.0 2.0 0.00 0.00 0.00 47 1011.2
20260905201503 99 309 0.0 1.0 0.00 0.00 0.00 47 1011.2
20260905201024 99 309 0.0 1.0 0.00 0.00 0.00 45 1011.2
20260905200503 100 248 0.0 3.0 0.00 0.00 0.00 49 1011.4
20260905200003 100 277 1.0 3.0 0.00 0.00 0.00 46 1011.7
20260905195503 100 341 1.0 3.0 0.00 0.00 0.00 47 1011.7
20260905195003 99 85 1.0 4.0 0.00 0.00 0.00 47 1011.8
20260905194503 99 116 1.0 4.0 0.00 0.00 0.00 44 1011.7
20260905194003 99 120 1.0 3.0 0.00 0.00 0.00 46 1011.8